Вернуться в каталог

CZ-4C DEB

АктивенSSO
NORAD 43270·DEBRIS·🇨🇳 China

Запущен Mar 31, 2018 с Taiyuan Satellite Launch Center

Loading…

Ближайшие Пролёты (ближайшие 24 часа)

TLE

СвежийSource: Space-Track

Эпоха: Sep 12, 2026, 08:56 UTC

1 43270U 18031J   26255.37279250  .00000390  00000-0  57201-4 0  9995
2 43270  97.7097 306.9176 0005264  19.3309 340.8102 14.80710045465846

Отслеживайте CZ-4C DEB в реальном времени с AllMySat

Download on the App Store